Weather History for Las Vegas, NM

Change the Weather History Date:

Friday, September 20, 2013

  Actual Average Record
Temperature  
Mean Temperature 56 °F -  
Max Temperature 63 °F 72 °F 89 °F (1956)
Min Temperature 51 °F 45 °F 32 °F (1971)
Degree Days  
Heating Degree Days 8    
Growing Degree Days 6 (Base 50)    
Moisture  
Dew Point 52 °F    
Average Humidity 88    
Maximum Humidity 100    
Minimum Humidity 70    
Precipitation  
Precipitation 0.00 in - - ()
Sea Level Pressure  
Sea Level Pressure 30.12 in    
Wind  
Wind Speed 11 mph (ESE)    
Max Wind Speed 17 mph    
Max Gust Speed 22 mph    
Visibility 9 miles    
Events      
Averages and records for this station are not official NWS values.
T = Trace of Precipitation, MM = Missing Value Source: NWS Daily Summary

Daily Weather History Graph

Daily Weather History Graph

Search for Another Location

Airport:

Trip Planner

Search our weather history database for the weather conditions in past years. The results will help you decide how hot, cold, wet, or windy it might be!

Date:

Astronomy

Sep. 20, 2013 Rise Set
Actual Time 6:47 AM MDT 6:59 PM MDT
Civil Twilight 6:21 AM MDT 7:25 PM MDT
Nautical Twilight 5:51 AM MDT 7:55 PM MDT
Astronomical Twilight 5:21 AM MDT 8:25 PM MDT
Moon 7:40 PM MDT (9/20) 8:00 AM MDT (9/20)
Length of Visible Light 13h 03m
Length of Day
12h 12m
Full, 98% of the Moon is Illuminated
Sep 20
Full
Sep 26
Last Quarter
Oct 4
New
Oct 11
First Quarter
Oct 18
Full

Hourly Weather History & Observations

Time (MDT) Temp. Dew Point Humidity Pressure Visibility Wind Dir Wind Speed Gust Speed Precip Events Conditions
12:10 AM 55.4 °F 51.8 °F 88% 30.24 in 10.0 mi NE 13.8 mph 21.9 mph N/A   Mostly Cloudy
12:16 AM 55.4 °F 53.6 °F 94% 30.25 in 10.0 mi NE 15.0 mph - N/A   Mostly Cloudy
12:53 AM 55.0 °F 53.1 °F 93% 29.96 in 9.0 mi ENE 17.3 mph - N/A   Overcast
1:53 AM 54.0 °F 52.0 °F 93% 29.98 in 10.0 mi NE 12.7 mph - N/A   Overcast
2:53 AM 53.1 °F 52.0 °F 96% 29.98 in 10.0 mi NNE 9.2 mph - N/A   Overcast
3:04 AM 53.6 °F 51.8 °F 94% 30.27 in 10.0 mi NNE 10.4 mph - N/A   Overcast
3:53 AM 53.1 °F 52.0 °F 96% 29.97 in 10.0 mi NNE 9.2 mph - N/A   Overcast
4:53 AM 53.1 °F 52.0 °F 96% 29.97 in 8.0 mi NE 10.4 mph - N/A   Overcast
5:53 AM 53.1 °F 52.0 °F 96% 29.97 in 5.0 mi NE 9.2 mph - N/A   Overcast
6:09 AM 53.6 °F 51.8 °F 94% 30.27 in 8.0 mi NE 5.8 mph - N/A   Overcast
6:23 AM 53.6 °F 51.8 °F 94% 30.27 in 9.0 mi NE 6.9 mph - N/A   Overcast
6:45 AM 51.8 °F 51.8 °F 100% 30.27 in 5.0 mi ENE 5.8 mph - N/A   Mostly Cloudy
6:53 AM 53.1 °F 52.0 °F 96% 30.01 in 5.0 mi ENE 5.8 mph - N/A   Mostly Cloudy
7:20 AM 53.6 °F 51.8 °F 94% 30.27 in 5.0 mi NNE 3.5 mph - N/A   Overcast
7:53 AM 54.0 °F 52.0 °F 93% 30.02 in 9.0 mi NE 5.8 mph - N/A   Overcast
8:17 AM 53.6 °F 51.8 °F 94% 30.27 in 9.0 mi NNE 5.8 mph - N/A   Mostly Cloudy
8:35 AM 55.4 °F 53.6 °F 94% 30.28 in 10.0 mi NE 6.9 mph - N/A   Mostly Cloudy
8:53 AM 55.0 °F 52.0 °F 89% 30.02 in 10.0 mi NE 6.9 mph - N/A   Overcast
9:35 AM 59.0 °F 51.8 °F 77% 30.28 in 10.0 mi NNE 6.9 mph - N/A   Scattered Clouds
9:53 AM 60.1 °F 52.0 °F 75% 30.03 in 10.0 mi East 4.6 mph - N/A   Mostly Cloudy
10:53 AM 60.1 °F 51.1 °F 72% 30.06 in 10.0 mi ESE 5.8 mph - N/A   Mostly Cloudy
11:34 AM 60.8 °F 51.8 °F 72% 30.29 in 10.0 mi East 9.2 mph - N/A   Scattered Clouds
11:46 AM 59.0 °F 51.8 °F 77% 30.29 in 10.0 mi East 6.9 mph - N/A   Mostly Cloudy
11:53 AM 60.1 °F 52.0 °F 75% 30.05 in 10.0 mi ESE 9.2 mph - N/A   Mostly Cloudy
12:53 PM 61.0 °F 52.0 °F 72% 30.04 in 10.0 mi ESE 11.5 mph - N/A   Mostly Cloudy
1:53 PM 61.0 °F 51.1 °F 70% 30.02 in 10.0 mi SE 9.2 mph - N/A   Overcast
2:53 PM 62.1 °F 53.1 °F 72% 30.00 in 10.0 mi South 11.5 mph 20.7 mph N/A   Overcast
3:53 PM 60.1 °F 52.0 °F 75% 30.00 in 10.0 mi SSE 11.5 mph - N/A   Mostly Cloudy
4:53 PM 60.1 °F 52.0 °F 75% 29.99 in 10.0 mi SSE 11.5 mph - N/A   Mostly Cloudy
5:07 PM 60.8 °F 51.8 °F 72% 30.23 in 10.0 mi South 15.0 mph - N/A   Scattered Clouds
5:53 PM 57.0 °F 52.0 °F 83% 30.01 in 10.0 mi SSE 13.8 mph - N/A   Mostly Cloudy
6:23 PM 55.4 °F 51.8 °F 88% 30.24 in 10.0 mi SSE 15.0 mph - N/A   Mostly Cloudy
6:39 PM 55.4 °F 53.6 °F 94% 30.24 in 10.0 mi SSE 12.7 mph - N/A   Overcast
6:53 PM 55.0 °F 53.1 °F 93% 30.02 in 10.0 mi SSE 13.8 mph - N/A   Mostly Cloudy
7:07 PM 55.4 °F 53.6 °F 94% 30.24 in 10.0 mi SSE 13.8 mph - N/A   Overcast
7:39 PM 53.6 °F 51.8 °F 94% 30.25 in 10.0 mi South 15.0 mph - N/A   Overcast
7:53 PM 54.0 °F 53.1 °F 97% 30.04 in 9.0 mi South 13.8 mph - N/A   Overcast
8:53 PM 54.0 °F 52.0 °F 93% 30.04 in 10.0 mi South 12.7 mph - N/A   Overcast
9:29 PM 53.6 °F 51.8 °F 94% 30.27 in 10.0 mi South 13.8 mph - N/A   Overcast
9:53 PM 54.0 °F 52.0 °F 93% 30.03 in 10.0 mi South 15.0 mph - N/A   Overcast
10:00 PM 53.6 °F 51.8 °F 94% 30.27 in 10.0 mi South 13.8 mph - N/A   Overcast
10:53 PM 54.0 °F 52.0 °F 93% 30.03 in 9.0 mi South 13.8 mph - N/A   Overcast
11:53 PM 54.0 °F 52.0 °F 93% 30.03 in 8.0 mi South 11.5 mph - N/A   Overcast